User: anonymous   Login
Location: Mohawk View
(42.7837°N, 73.7885°W)
Time: 19:57:26
(UTC+00:00)
Language:

Cosmos 1378 Rocket - Orbit

View from above orbital plane
View from above orbital plane
View from above satellite
View from above satellite

Ground track
Ground track

The orbit data is extracted from the following two-line orbital elements,

1 13272U 82059B   21271.50225270  .00000128  00000-0  12253-4 0  9993
2 13272  82.5076 109.1453 0018392 356.0500   4.0567 14.84769380124009
Epoch (UTC): 28 September 2021 12:03:14
Eccentricity: 0.0018392
inclination: 82.5076°
perigee height: 601 km
apogee height: 627 km
right ascension of ascending node: 109.1453°
argument of perigee: 356.0500°
revolutions per day: 14.84769380
mean anomaly at epoch: 4.0567°
orbit number at epoch: 12400

The dashed part of the orbit path shows where the satellite is in the earth's shadow,  

DLR